Sedona, AZ

9:20 AM MST on January 19, 2018 (GMT -0700)
Sedona

Weather History for KSEZ - December, 2012

Change the Weather History Date:

Tuesday, December 4, 2012

  Actual Average Record
Temperature  
Mean Temperature 58 °F -  
Max Temperature 69 °F 60 °F 69 °F (2012)
Min Temperature 48 °F 32 °F 26 °F (2011)
Degree Days  
Heating Degree Days 6    
Growing Degree Days 8 (Base 50)    
Moisture  
Dew Point 32 °F    
Average Humidity 39    
Maximum Humidity 62    
Minimum Humidity 25    
Precipitation  
Precipitation 0.00 in - - ()
Sea Level Pressure  
Sea Level Pressure 30.31 in    
Wind  
Wind Speed 10 mph (NE)    
Max Wind Speed 16 mph    
Max Gust Speed 20 mph    
Visibility 10 miles    
Events      
Averages and records for this station are not official NWS values.
T = Trace of Precipitation, MM = Missing Value Source: NWS Daily Summary

Daily Weather History Graph

Daily Weather History Graph

Search for Another Location

Airport or City:

Trip Planner

Search our weather history database for the weather conditions in past years. The results will help you decide how hot, cold, wet, or windy it might be!

Date:

Astronomy

Dec. 04, 2012 Rise Set
Actual Time 7:19 AM MST 5:15 PM MST
Civil Twilight 6:51 AM MST 5:43 PM MST
Nautical Twilight 6:20 AM MST 6:14 PM MST
Astronomical Twilight 5:49 AM MST 6:45 PM MST
Moon 10:57 PM MST (12/4) 11:23 AM MST (12/4)
Length of Visible Light 10h 51m
Length of Day
9h 56m
Waning Gibbous, 69% of the Moon is Illuminated
Dec 4
Waning Gibbous
Dec 6
Last Quarter
Dec 13
New
Dec 19
First Quarter
Dec 28
Full

Hourly Weather History & Observations

Time (MST) Temp. Dew Point Humidity Pressure Visibility Wind Dir Wind Speed Gust Speed Precip Events Conditions
12:15 AM 50.0 °F 35.6 °F 58% 30.27 in 10.0 mi NE 13.8 mph - N/A   Clear
12:35 AM 50.0 °F 35.6 °F 58% 30.27 in 10.0 mi NE 12.7 mph - N/A   Clear
12:55 AM 50.0 °F 35.6 °F 58% 30.26 in 10.0 mi NNE 12.7 mph - N/A   Clear
1:15 AM 50.0 °F 35.6 °F 58% 30.26 in 10.0 mi NE 11.5 mph - N/A   Clear
1:55 AM 50.0 °F 35.6 °F 58% 30.27 in 10.0 mi NE 11.5 mph - N/A   Clear
2:15 AM 48.2 °F 35.6 °F 62% 30.28 in 10.0 mi NNE 11.5 mph - N/A   Clear
2:35 AM 48.2 °F 35.6 °F 62% 30.29 in 10.0 mi NE 12.7 mph - N/A   Clear
2:55 AM 50.0 °F 35.6 °F 58% 30.29 in 10.0 mi NE 9.2 mph - N/A   Clear
3:15 AM 50.0 °F 35.6 °F 58% 30.29 in 10.0 mi NE 8.1 mph - N/A   Clear
3:35 AM 50.0 °F 35.6 °F 58% 30.29 in 10.0 mi NE 11.5 mph - N/A   Clear
3:55 AM 50.0 °F 33.8 °F 54% 30.30 in 10.0 mi NE 11.5 mph - N/A   Clear
4:15 AM 50.0 °F 33.8 °F 54% 30.30 in 10.0 mi NE 13.8 mph - N/A   Clear
4:35 AM 50.0 °F 33.8 °F 54% 30.29 in 10.0 mi NE 12.7 mph - N/A   Clear
4:55 AM 50.0 °F 33.8 °F 54% 30.30 in 10.0 mi NE 12.7 mph 18.4 mph N/A   Clear
5:15 AM 50.0 °F 33.8 °F 54% 30.30 in 10.0 mi NE 11.5 mph - N/A   Clear
5:35 AM 50.0 °F 33.8 °F 54% 30.30 in 10.0 mi ENE 12.7 mph - N/A   Clear
5:55 AM 50.0 °F 33.8 °F 54% 30.31 in 10.0 mi NE 12.7 mph - N/A   Clear
6:15 AM 50.0 °F 33.8 °F 54% 30.31 in 10.0 mi NE 16.1 mph - N/A   Clear
6:55 AM 50.0 °F 33.8 °F 54% 30.33 in 10.0 mi NE 13.8 mph 19.6 mph N/A   Clear
7:15 AM 50.0 °F 33.8 °F 54% 30.34 in 10.0 mi NE 12.7 mph 17.3 mph N/A   Clear
7:35 AM 50.0 °F 33.8 °F 54% 30.35 in 10.0 mi ENE 15.0 mph - N/A   Clear
7:55 AM 50.0 °F 33.8 °F 54% 30.36 in 10.0 mi ENE 12.7 mph 16.1 mph N/A   Clear
8:15 AM 50.0 °F 33.8 °F 54% 30.36 in 10.0 mi ENE 13.8 mph - N/A   Clear
8:55 AM 51.8 °F 33.8 °F 50% 30.36 in 10.0 mi ENE 9.2 mph - N/A   Clear
9:15 AM 55.4 °F 33.8 °F 44% 30.37 in 10.0 mi East 8.1 mph - N/A   Clear
9:35 AM 57.2 °F 33.8 °F 41% 30.36 in 10.0 mi ESE 5.8 mph - N/A   Clear
9:55 AM 59.0 °F 33.8 °F 39% 30.37 in 10.0 mi SE 3.5 mph - N/A   Clear
10:15 AM 60.8 °F 33.8 °F 36% 30.36 in 10.0 mi SSE 3.5 mph - N/A   Clear
10:35 AM 60.8 °F 35.6 °F 39% 30.37 in 10.0 mi Calm Calm - N/A   Clear
10:55 AM 62.6 °F 33.8 °F 34% 30.36 in 10.0 mi Calm Calm - N/A   Clear
11:15 AM 62.6 °F 35.6 °F 37% 30.36 in 10.0 mi West 4.6 mph - N/A   Clear
11:35 AM 64.4 °F 33.8 °F 32% 30.34 in 10.0 mi South 4.6 mph - N/A   Clear
11:55 AM 66.2 °F 33.8 °F 30% 30.33 in 10.0 mi SSW 4.6 mph - N/A   Clear
12:15 PM 68.0 °F 33.8 °F 28% 30.32 in 10.0 mi SW 5.8 mph - N/A   Clear
12:35 PM 66.2 °F 33.8 °F 30% 30.32 in 10.0 mi West 3.5 mph - N/A   Clear
12:55 PM 68.0 °F 33.8 °F 28% 30.32 in 10.0 mi WNW 5.8 mph - N/A   Clear
1:15 PM 66.2 °F 32.0 °F 28% 30.31 in 10.0 mi WSW 4.6 mph - N/A   Clear
1:35 PM 68.0 °F 32.0 °F 26% 30.31 in 10.0 mi West 4.6 mph - N/A   Clear
1:55 PM 68.0 °F 32.0 °F 26% 30.31 in 10.0 mi Calm Calm - N/A   Clear
2:15 PM 66.2 °F 32.0 °F 28% 30.29 in 10.0 mi NW 4.6 mph - N/A   Clear
2:35 PM 66.2 °F 32.0 °F 28% 30.29 in 10.0 mi West 5.8 mph - N/A   Clear
2:55 PM 68.0 °F 32.0 °F 26% 30.28 in 10.0 mi West 4.6 mph - N/A   Clear
3:15 PM 68.0 °F 32.0 °F 26% 30.28 in 10.0 mi SSW 3.5 mph - N/A   Clear
3:35 PM 69.8 °F 32.0 °F 25% 30.29 in 10.0 mi SSW 3.5 mph - N/A   Clear
3:55 PM 68.0 °F 32.0 °F 26% 30.29 in 10.0 mi West 4.6 mph - N/A   Clear
4:15 PM 68.0 °F 32.0 °F 26% 30.30 in 10.0 mi Calm Calm - N/A   Clear
4:35 PM 68.0 °F 32.0 °F 26% 30.29 in 10.0 mi Calm Calm - N/A   Clear
4:55 PM 64.4 °F 32.0 °F 30% 30.30 in 10.0 mi Calm Calm - N/A   Clear
5:15 PM 64.4 °F 32.0 °F 30% 30.30 in 10.0 mi Calm Calm - N/A   Clear
5:35 PM 64.4 °F 32.0 °F 30% 30.30 in 10.0 mi Calm Calm - N/A   Clear
5:55 PM 64.4 °F 32.0 °F 30% 30.30 in 10.0 mi Calm Calm - N/A   Clear
6:15 PM 62.6 °F 32.0 °F 32% 30.30 in 10.0 mi ENE 8.1 mph - N/A   Clear
6:35 PM 62.6 °F 30.2 °F 30% 30.30 in 10.0 mi NE 9.2 mph - N/A   Clear
6:55 PM 62.6 °F 30.2 °F 30% 30.30 in 10.0 mi ENE 10.4 mph - N/A   Clear
7:15 PM 62.6 °F 28.4 °F 27% 30.29 in 10.0 mi ENE 10.4 mph - N/A   Clear
7:35 PM 62.6 °F 28.4 °F 27% 30.29 in 10.0 mi NE 9.2 mph - N/A   Clear
7:55 PM 62.6 °F 28.4 °F 27% 30.29 in 10.0 mi ENE 12.7 mph - N/A   Clear
8:15 PM 60.8 °F 28.4 °F 29% 30.29 in 10.0 mi ENE 10.4 mph - N/A   Clear
8:35 PM 60.8 °F 28.4 °F 29% 30.29 in 10.0 mi NE 11.5 mph - N/A   Clear
8:55 PM 60.8 °F 26.6 °F 27% 30.29 in 10.0 mi NE 10.4 mph 16.1 mph N/A   Clear
9:15 PM 59.0 °F 26.6 °F 29% 30.28 in 10.0 mi NE 12.7 mph - N/A   Clear
9:35 PM 59.0 °F 24.8 °F 27% 30.29 in 10.0 mi NE 10.4 mph - N/A   Clear
9:55 PM 59.0 °F 24.8 °F 27% 30.28 in 10.0 mi ENE 11.5 mph - N/A   Clear
10:15 PM 59.0 °F 24.8 °F 27% 30.29 in 10.0 mi NE 11.5 mph - N/A   Clear
10:35 PM 59.0 °F 23.0 °F 25% 30.29 in 10.0 mi NE 10.4 mph - N/A   Clear
10:55 PM 59.0 °F 23.0 °F 25% 30.30 in 10.0 mi ENE 8.1 mph - N/A   Clear
11:15 PM 59.0 °F 23.0 °F 25% 30.30 in 10.0 mi NE 4.6 mph - N/A   Clear
11:35 PM 57.2 °F 24.8 °F 29% 30.30 in 10.0 mi Calm Calm - N/A   Clear
11:55 PM 55.4 °F 26.6 °F 33% 30.30 in 10.0 mi NE 6.9 mph - N/A   Clear